Location: Ajisawe
(8.4333°N, 4.3833°E)
Time: 00:02:23
(UTC+00:00)

Vanguard 1 Rocket - Pass Details

Date: 20 April 2021
Orbit: 652 x 4224 km, 34.3° (Epoch: 10 May)

Event Time Altitude Azimuth Distance (km) Brightness Sun altitude
Exits shadow 02:23:48 12° 189° (S) 7,164 11.6 -45.0°
Maximum altitude 02:25:12 12° 186° (S) 7,194 11.7 -44.6°
Drops below altitude 10° 02:32:42 10° 168° (SSE) 7,428 11.9 -43.0°
Sets 02:46:53 0° 140° (SE) 8,132 12.4 -39.7°
